Location: Newark
(39.5667°N, 8.9833°E)
Time: 02:48:00
(UTC+00:00)

Vanguard 2 Rocket - Visible Passes

Search period start: 16 October 2019 00:00
Search period end: 26 October 2019 00:00
Orbit: 554 x 3326 km, 32.9° (Epoch: 13 October)

Date Brightness Start Highest point End Pass type
(mag) Time Alt. Az. Time Alt. Az. Time Alt. Az.
18 Oct 10.5 17:06:57 10° WSW 17:09:21 11° SW 17:11:33 10° SW visible
19 Oct 11.2 04:50:40 10° SE 04:51:18 10° SE 04:51:56 10° ESE visible
21 Oct 10.9 04:55:14 10° SSE 05:04:00 18° SE 05:14:25 10° E visible
23 Oct 10.6 05:06:00 10° S 05:16:44 26° SE 05:30:38 10° E visible
24 Oct 10.7 04:09:35 10° SSE 04:16:44 16° SE 04:25:26 10° E visible
25 Oct 10.3 05:18:05 10° SSW 05:29:36 35° SE 05:45:37 10° E visible
